Hattiesburg, MS

4:21 PM CDT on April 30, 2017 (GMT -0500)
Chain Municipal

Weather History for KHBG - March, 2012

Change the Weather History Date:

Friday, March 9, 2012

  Actual Average Record
Temperature  
Mean Temperature 60 °F 58 °F  
Max Temperature 70 °F 70 °F 84 °F (1951)
Min Temperature 50 °F 46 °F 18 °F (1996)
Degree Days  
Heating Degree Days 5 8  
Month to date heating degree days 40 81  
Since 1 July heating degree days 1362 1759  
Cooling Degree Days 0 1  
Month to date cooling degree days 27 9  
Year to date cooling degree days 69 24  
Growing Degree Days 10 (Base 50)    
Moisture  
Dew Point 53 °F    
Average Humidity 75    
Maximum Humidity 90    
Minimum Humidity 59    
Precipitation  
Precipitation 0.51 in 0.18 in 1.78 in (2015)
Month to date precipitation 2.32 1.73  
Year to date precipitation 15.47 12.86  
Sea Level Pressure  
Sea Level Pressure 30.25 in    
Wind  
Wind Speed 7 mph (NNE)    
Max Wind Speed 24 mph    
Max Gust Speed 31 mph    
Visibility 8 miles    
Events Rain    
T = Trace of Precipitation, MM = Missing Value Source: NWS Daily Summary

Daily Weather History Graph

Daily Weather History Graph

Search for Another Location

Airport or City:

Trip Planner

Search our weather history database for the weather conditions in past years. The results will help you decide how hot, cold, wet, or windy it might be!

Date:

Astronomy

Mar. 09, 2012 Rise Set
Actual Time 6:13 AM CST 6:01 PM CST
Civil Twilight 5:49 AM CST 6:25 PM CST
Nautical Twilight 5:21 AM CST 6:53 PM CST
Astronomical Twilight 4:53 AM CST 7:21 PM CST
Moon 7:48 PM CST (3/9) 6:41 AM CST (3/9)
Length of Visible Light 12h 36m
Length of Day
11h 47m
Full, 97% of the Moon is Illuminated
Mar 9
Full
Mar 14
Last Quarter
Mar 22
New
Mar 30
First Quarter
Apr 6
Full

Hourly Weather History & Observations

Time (CST) Temp. Dew Point Humidity Pressure Visibility Wind Dir Wind Speed Gust Speed Precip Events Conditions
12:43 AM 69.8 °F 66.2 °F 88% 30.12 in 7.0 mi SSW 3.5 mph - N/A   Mostly Cloudy
12:53 AM 69.1 °F 66.0 °F 90% 30.12 in 8.0 mi Calm Calm - N/A   Mostly Cloudy
1:53 AM 69.1 °F 64.9 °F 87% 30.13 in 7.0 mi Calm Calm - N/A   Overcast
2:53 AM 62.1 °F 57.9 °F 86% 30.17 in 5.0 mi North 19.6 mph 29.9 mph 0.03 in Rain Heavy Rain
2:58 AM 60.8 °F 57.2 °F 88% 30.18 in 4.0 mi North 11.5 mph 29.9 mph 0.01 in Rain Heavy Rain
3:11 AM 60.8 °F 57.2 °F 88% 30.18 in 2.5 mi NNE 13.8 mph 19.6 mph 0.11 in Rain Heavy Rain
3:21 AM 60.8 °F 57.2 °F 88% 30.18 in 6.0 mi NNE 6.9 mph 18.4 mph 0.12 in Rain Light Rain
3:53 AM 61.0 °F 57.9 °F 90% 30.18 in 10.0 mi Variable 4.6 mph - 0.22 in Rain Light Rain
4:04 AM 60.8 °F 57.2 °F 88% 30.19 in 10.0 mi North 5.8 mph - 0.00 in Rain Light Rain
4:46 AM 60.8 °F 57.2 °F 88% 30.21 in 6.0 mi NNE 5.8 mph - 0.02 in Rain Light Rain
4:53 AM 61.0 °F 57.0 °F 87% 30.20 in 3.0 mi NE 5.8 mph - 0.05 in Rain Heavy Rain
5:53 AM 61.0 °F 57.9 °F 90% 30.21 in 10.0 mi NE 3.5 mph - 0.03 in Rain Light Rain
6:10 AM 60.8 °F 57.2 °F 88% 30.23 in 10.0 mi Calm Calm - 0.00 in   Overcast
6:37 AM 60.8 °F 57.2 °F 88% 30.23 in 10.0 mi NNE 3.5 mph - 0.00 in   Overcast
6:48 AM 60.8 °F 57.2 °F 88% 30.23 in 10.0 mi NNE 3.5 mph - 0.00 in   Overcast
6:53 AM 61.0 °F 57.9 °F 90% 30.23 in 10.0 mi North 4.6 mph - 0.00 in Rain Light Rain
7:53 AM 60.1 °F 57.9 °F 93% 30.26 in 5.0 mi NNE 5.8 mph - 0.06 in Rain Rain
8:53 AM 61.0 °F 57.9 °F 90% 30.25 in 8.0 mi SSE 5.8 mph - 0.07 in Rain Rain
9:39 AM 60.8 °F 57.2 °F 88% 30.24 in 10.0 mi ESE 3.5 mph - 0.04 in Rain Light Rain
9:53 AM 62.1 °F 59.0 °F 90% 30.27 in 10.0 mi North 6.9 mph - 0.04 in   Overcast
10:33 AM 59.0 °F 55.4 °F 88% 30.28 in 1.8 mi NNE 15.0 mph 23.0 mph 0.01 in Rain Light Rain
10:53 AM 55.9 °F 53.1 °F 90% 30.28 in 2.5 mi NNE 12.7 mph 25.3 mph 0.01 in Rain Light Rain
10:57 AM 57.2 °F 53.6 °F 88% 30.29 in 4.0 mi North 13.8 mph 21.9 mph 0.00 in Rain Light Rain
11:04 AM 57.2 °F 53.6 °F 88% 30.29 in 10.0 mi NNE 12.7 mph 20.7 mph 0.00 in Rain Light Rain
11:13 AM 57.2 °F 53.6 °F 88% 30.29 in 10.0 mi NNE 10.4 mph - 0.00 in   Overcast
11:38 AM 57.2 °F 53.6 °F 88% 30.29 in 10.0 mi NNE 9.2 mph - 0.00 in   Overcast
11:53 AM 57.9 °F 53.1 °F 84% 30.27 in 10.0 mi NE 13.8 mph 18.4 mph 0.00 in   Overcast
12:53 PM 55.0 °F 51.1 °F 86% 30.27 in 10.0 mi North 9.2 mph - N/A   Overcast
1:49 PM 53.6 °F 48.2 °F 82% 30.28 in 10.0 mi North 11.5 mph 17.3 mph N/A   Overcast
1:53 PM 54.0 °F 48.0 °F 80% 30.27 in 10.0 mi North 11.5 mph 17.3 mph N/A   Overcast
2:53 PM 53.1 °F 46.9 °F 80% 30.29 in 10.0 mi North 8.1 mph - N/A   Overcast
3:53 PM 54.0 °F 46.9 °F 77% 30.30 in 10.0 mi NNE 8.1 mph - N/A   Overcast
4:34 PM 53.6 °F 46.4 °F 77% 30.29 in 10.0 mi NNE 5.8 mph - N/A   Overcast
4:53 PM 54.0 °F 46.9 °F 77% 30.30 in 10.0 mi NNE 4.6 mph - N/A   Overcast
5:53 PM 55.0 °F 46.0 °F 72% 30.31 in 10.0 mi Calm Calm - N/A   Overcast
6:53 PM 55.0 °F 45.0 °F 69% 30.32 in 10.0 mi NNE 6.9 mph - N/A   Overcast
7:44 PM 55.4 °F 44.6 °F 67% 30.33 in 10.0 mi NNE 3.5 mph - N/A   Overcast
7:53 PM 55.0 °F 44.1 °F 67% 30.34 in 10.0 mi North 4.6 mph - N/A   Overcast
8:53 PM 54.0 °F 43.0 °F 66% 30.34 in 10.0 mi North 3.5 mph - N/A   Overcast
9:53 PM 53.1 °F 39.9 °F 61% 30.35 in 10.0 mi North 4.6 mph - N/A   Clear
10:53 PM 51.1 °F 39.0 °F 63% 30.35 in 10.0 mi North 3.5 mph - N/A   Clear
11:53 PM 50.0 °F 37.9 °F 63% 30.33 in 10.0 mi North 4.6 mph - N/A   Clear